Weather History for KDTO - August, 2013

Change the Weather History Date:

Monday, August 19, 2013

  Actual Average Record
Temperature  
Mean Temperature 80 °F -  
Max Temperature 93 °F 93 °F 106 °F (1999)
Min Temperature 66 °F 71 °F 66 °F (2012)
Cooling Degree Days 14    
Growing Degree Days 30 (Base 50)    
Moisture  
Dew Point 60 °F    
Average Humidity 52    
Maximum Humidity 81    
Minimum Humidity 30    
Precipitation  
Precipitation 0.00 in - - ()
Sea Level Pressure  
Sea Level Pressure 29.99 in    
Wind  
Wind Speed 5 mph (ESE)    
Max Wind Speed 12 mph    
Max Gust Speed 18 mph    
Visibility 10 miles    
Events      
Averages and records for this station are not official NWS values.
T = Trace of Precipitation, MM = Missing Value Source: NWS Daily Summary

Daily Weather History Graph

Daily Weather History Graph

Search for Another Location

Airport or City:

Trip Planner

Search our weather history database for the weather conditions in past years. The results will help you decide how hot, cold, wet, or windy it might be!

Date:

Astronomy

Aug. 19, 2013 Rise Set
Actual Time 6:54 AM CDT 8:09 PM CDT
Civil Twilight 6:28 AM CDT 8:35 PM CDT
Nautical Twilight 5:57 AM CDT 9:06 PM CDT
Astronomical Twilight 5:25 AM CDT 9:38 PM CDT
Moon 7:01 PM CDT (8/19) 5:16 AM CDT (8/19)
Length of Visible Light 14h 06m
Length of Day
13h 15m
Waxing Gibbous, 97% of the Moon is Illuminated
Aug 19
Waxing Gibbous
Aug 20
Full
Aug 28
Last Quarter
Sep 5
New
Sep 12
First Quarter

Hourly Weather History & Observations

Time (CDT) Temp. Heat Index Dew Point Humidity Pressure Visibility Wind Dir Wind Speed Gust Speed Precip Events Conditions
12:53 AM 71.1 °F - 61.0 °F 70% 30.02 in 10.0 mi Calm Calm - N/A   Clear
1:53 AM 69.1 °F - 61.0 °F 75% 30.01 in 10.0 mi North 4.6 mph - N/A   Clear
2:53 AM 70.0 °F - 60.1 °F 71% 30.01 in 10.0 mi NE 4.6 mph - N/A   Clear
3:53 AM 69.1 °F - 60.1 °F 73% 30.00 in 10.0 mi NE 4.6 mph - N/A   Clear
4:53 AM 71.1 °F - 60.1 °F 68% 29.99 in 10.0 mi East 4.6 mph - N/A   Clear
5:53 AM 71.1 °F - 62.1 °F 73% 30.00 in 10.0 mi East 5.8 mph - N/A   Clear
6:53 AM 66.9 °F - 61.0 °F 81% 30.02 in 10.0 mi ESE 5.8 mph - N/A   Clear
7:53 AM 73.0 °F - 64.0 °F 73% 30.04 in 10.0 mi ESE 4.6 mph - N/A   Clear
8:53 AM 77.0 °F - 64.0 °F 64% 30.06 in 10.0 mi SE 9.2 mph - N/A   Clear
9:53 AM 80.1 °F 81.9 °F 64.9 °F 60% 30.06 in 10.0 mi SE 11.5 mph - N/A   Clear
10:53 AM 84.0 °F 85.8 °F 64.9 °F 53% 30.05 in 10.0 mi SE 9.2 mph - N/A   Clear
11:53 AM 88.0 °F 88.4 °F 62.1 °F 42% 30.05 in 10.0 mi SSE 11.5 mph 17.3 mph N/A   Clear
12:53 PM 90.0 °F 89.1 °F 59.0 °F 35% 30.03 in 10.0 mi South 8.1 mph 18.4 mph N/A   Clear
1:53 PM 91.0 °F 89.7 °F 57.0 °F 32% 30.01 in 10.0 mi South 6.9 mph 16.1 mph N/A   Clear
2:53 PM 91.9 °F 90.6 °F 57.0 °F 31% 29.98 in 10.0 mi SE 9.2 mph - N/A   Clear
3:53 PM 93.0 °F 91.7 °F 57.0 °F 30% 29.96 in 10.0 mi SE 10.4 mph - N/A   Clear
4:53 PM 93.9 °F 92.9 °F 57.9 °F 30% 29.94 in 10.0 mi ESE 6.9 mph - N/A   Clear
5:53 PM 93.0 °F 92.0 °F 57.9 °F 31% 29.93 in 10.0 mi SE 9.2 mph - N/A   Clear
6:53 PM 91.0 °F 89.7 °F 57.0 °F 32% 29.92 in 10.0 mi ESE 6.9 mph - N/A   Clear
7:53 PM 89.1 °F 87.7 °F 57.0 °F 34% 29.92 in 10.0 mi SE 4.6 mph - N/A   Clear
8:53 PM 82.9 °F 82.6 °F 57.9 °F 42% 29.93 in 10.0 mi SE 4.6 mph - N/A   Clear
9:53 PM 82.0 °F 82.1 °F 59.0 °F 45% 29.94 in 10.0 mi ESE 4.6 mph - N/A   Clear
10:53 PM 80.1 °F 80.7 °F 59.0 °F 48% 29.96 in 10.0 mi Calm Calm - N/A   Clear
11:53 PM 79.0 °F - 59.0 °F 50% 29.96 in 10.0 mi SE 3.5 mph - N/A   Clear